STARLINK-30262

decayed
NORAD ID: 57535 Int'l Des: 2023-115 Owner: SPXS Country: US Constellation: starlink
LEOCIRCULAR

关于 STARLINK-30262

正在加载描述...

高度历史

Altitude vs Time

uPlot chart will show altitude changes over time

两行轨道根数

1 57535U 23115Q 25204.45895414 .44093982 92364-5 48326-2 0 9993
2 57535 42.9766 343.4976 0005643 281.3965 138.4460 16.36224002111037
Epoch: Jul 23, 2025 • Age: 1378 hours

当前状态

Position data unavailable
发射日期 Aug 8, 2023
运行时间 2.1 years
衰减日期 Jul 23, 2025
类型 internet

技术详情

分类 Payload
质量 730.00 kg
干质量 700.00 kg
总质量 730.00 kg
长度 0.30 m
直径 4.10 m
跨度 29.00 m
形状 Box + pan
制造商 SPXS
平台类型 Starlink V2M
阶段状态 Unknown Transfer Status
所有者/国家 SPXS/US

大型星座

Loading constellations...